Regional Weather Roundup
Issued by NWS

Home | Current Version | Previous Version | Text Only | Print | Product List | Glossary On
Versions: 1 2 3 4 5 6 7 8 9 10 11 12 13 14 15 16 17 18 19 20 21 22 23 24 25 26 27 28 29 30 31 32 33 34 35 36 37 38 39 40 41 42 43 44 45 46 47 48 49 50
000
ASUS44 KMEG 290310
RWRTN
TENNESSEE HOURLY STATE WEATHER ROUNDUP
NATIONAL WEATHER SERVICE MEMPHIS TN
1000 PM CDT THU AUG 28 2014

TNZ002-004-019-021-049-052-054-088>092-290400-
WEST TENNESSEE

CITY           SKY/WX    TMP DP  RH WIND       PRES   REMARKS
MEMPHIS INTL   PTCLDY    84  68  58 E3        29.96S
NWS MEMPHIS      N/A     78 N/A N/A MISG        N/A
JACKSON        CLEAR     75  72  90 CALM      29.98R
DYERSBURG      CLEAR     77  64  65 NE6       29.98S
UNION CITY     CLEAR     72  72 100 N3        29.98S
PARIS          CLEAR     72  70  94 NE3       30.00F
HUNTINGDON     CLEAR     73  71  93 E3        29.99S
LEXINGTON      CLEAR     75  72  88 CALM      29.98R
SAVANNAH       CLEAR     72  72 100 CALM      29.98S
$$

TNZ008-025-027-028-033-062-065-066-290400-
NORTH MIDDLE TENNESSEE

CITY           SKY/WX    TMP DP  RH WIND       PRES   REMARKS
NASHVILLE      MOCLDY    79  71  76 N5        30.01S
DICKSON        PTCLDY    72  68  88 CALM      30.02R
PORTLAND       CLOUDY    72  70  94 CALM      30.02R
CLARKSVILLE    CLOUDY    76  71  85 NE5       30.01R
LEBANON        PTCLDY    79  70  74 NE3       30.00S
SMYRNA         MOCLDY    82  73  74 N5        30.02R
MURFREESBORO   PTCLDY    82  70  67 SE6       30.00S
COOKEVILLE     CLEAR     73  72  94 CALM      30.04R
GALLATIN       PTCLDY    79  75  87 CALM      30.02S
CROSSVILLE     MOCLDY    72  68  87 CALM      30.10S
$$

TNZ061-075-076-078-094-096-097-290400-
SOUTH MIDDLE TENNESSEE

CITY           SKY/WX    TMP DP  RH WIND       PRES   REMARKS
LEWISBURG      PTCLDY    74  70  87 CALM      30.00S
FAYETTEVILLE   CLEAR     73  66  78 SE3       30.02S
TULLAHOMA      CLEAR     73  66  78 CALM      30.05R
WINCHESTER     CLEAR     73  70  88 CALM      30.04R
MCMINNVILLE    CLEAR     73  73 100 CALM      30.04S
COLUMBIA         N/A     75  73  94 CALM      30.00R
SHELBYVILLE    CLEAR     77  72  83 E3        30.03R
$$

TNZ017-018-042-046-047-290400-
NORTHEAST TENNESSEE

CITY           SKY/WX    TMP DP  RH WIND       PRES   REMARKS
TRI CITIES     PTCLDY    73  67  81 CALM      30.09S
ELIZABETHTON   CLEAR     70  64  83 CALM      30.10S
$$

TNZ012-013-036-069-073-074-290400-
CENTRAL EAST TENNESSEE

CITY           SKY/WX    TMP DP  RH WIND       PRES   REMARKS
KNOXVILLE      PTCLDY    78  70  76 CALM      30.03S
OAK RIDGE      CLEAR     76  72  87 CALM      30.05S
GATLINBURG     CLEAR     75  70  83 CALM      30.04S
MORRISTOWN     CLEAR     73  70  88 CALM      30.07S
$$

TNZ083-085-099-290400-
SOUTHEAST TENNESSEE

CITY           SKY/WX    TMP DP  RH WIND       PRES   REMARKS
CHATTANOOGA    CLEAR     78  69  73 CALM      30.02S
$$

SKY/WX REPORTED AS FAIR MEANS FEW OR NO CLOUDS BELOW
12 THOUSAND FEET.



USA.gov is the U.S. government's official web portal to all federal, state and local government web resources and services.